• Em Portugal
  • Lista de países
  • Para 7 dias
  • Temperatura da água
  • Mapas de satélite
  • Mapa do tempo
  • Widgets de tempo
  • user-avatar
    Iniciar Sessão

    Previsão horária em Konya

    Hoje, 24 Abril, Terça-feira

    Tempo Temperatura Precipitação Vento Pressão Humidade
    00:00 +15°C° 0 mm 1 m/s 672 mmHg 43%
    01:00 +14°C° 0 mm 1 m/s 672 mmHg 44%
    02:00 +14°C° 0 mm 1 m/s 671 mmHg 46%
    03:00 +13°C° 0 mm 1 m/s 671 mmHg 47%
    04:00 +13°C° 0 mm 1 m/s 671 mmHg 49%
    05:00 +12°C° 0 mm 1 m/s 671 mmHg 50%
    06:00 +14°C° 0 mm 1 m/s 672 mmHg 44%
    07:00 +16°C° 0 mm 1 m/s 673 mmHg 39%
    08:00 +19°C° 0 mm 1 m/s 673 mmHg 33%
    09:00 +20°C° 0 mm 1 m/s 674 mmHg 31%
    10:00 +21°C° 0 mm 1 m/s 674 mmHg 28%
    11:00 +22°C° 0 mm 1 m/s 674 mmHg 26%
    12:00 +23°C° 0 mm 1 m/s 674 mmHg 24%
    13:00 +24°C° 0 mm 2 m/s 674 mmHg 22%
    14:00 +24°C° 0 mm 2 m/s 674 mmHg 21%
    15:00 +24°C° 0 mm 2 m/s 674 mmHg 21%
    16:00 +24°C° 0 mm 2 m/s 673 mmHg 21%
    17:00 +24°C° 0 mm 2 m/s 673 mmHg 21%
    18:00 +23°C° 0 mm 2 m/s 673 mmHg 24%
    19:00 +20°C° 0 mm 2 m/s 673 mmHg 28%
    20:00 +19°C° 0 mm 2 m/s 673 mmHg 31%
    21:00 +19°C° 0 mm 1 m/s 672 mmHg 34%
    22:00 +18°C° 0 mm 1 m/s 672 mmHg 36%
    23:00 +16°C° 0 mm 1 m/s 672 mmHg 39%

    Amanhã, 25 Abril, Quarta-feira

    Tempo Temperatura Precipitação Vento Pressão Humidade
    00:00 +15°C° 0 mm 1 m/s 672 mmHg 40%
    01:00 +15°C° 0 mm 1 m/s 672 mmHg 41%
    02:00 +14°C° 0 mm 1 m/s 672 mmHg 43%
    03:00 +14°C° 0 mm 1 m/s 672 mmHg 43%
    04:00 +14°C° 0 mm 1 m/s 672 mmHg 43%
    05:00 +13°C° 0 mm 1 m/s 672 mmHg 44%
    06:00 +15°C° 0 mm 1 m/s 672 mmHg 40%
    07:00 +18°C° 0 mm 1 m/s 673 mmHg 36%
    08:00 +20°C° 0 mm 1 m/s 674 mmHg 31%
    09:00 +21°C° 0 mm 1 m/s 674 mmHg 30%
    10:00 +21°C° 0 mm 2 m/s 674 mmHg 28%
    11:00 +24°C° 0 mm 2 m/s 674 mmHg 26%
    12:00 +24°C° 0 mm 2 m/s 674 mmHg 25%
    13:00 +25°C° 0 mm 2 m/s 674 mmHg 24%
    14:00 +25°C° 0 mm 2 m/s 673 mmHg 23%
    15:00 +25°C° 0 mm 2 m/s 673 mmHg 23%
    16:00 +25°C° 0 mm 3 m/s 673 mmHg 23%
    17:00 +25°C° 0 mm 3 m/s 673 mmHg 24%
    18:00 +22°C° 0 mm 3 m/s 673 mmHg 26%
    19:00 +21°C° 0 mm 2 m/s 672 mmHg 29%
    20:00 +20°C° 0 mm 2 m/s 672 mmHg 31%
    21:00 +19°C° 0 mm 2 m/s 672 mmHg 33%
    22:00 +18°C° 0 mm 2 m/s 672 mmHg 34%
    23:00 +17°C° 0 mm 2 m/s 672 mmHg 35%

    Depois de amanhã, 26 Abril, Quinta-feira

    Tempo Temperatura Precipitação Vento Pressão Humidade
    00:00 +17°C° 0 mm 2 m/s 672 mmHg 38%
    01:00 +16°C° 0 mm 2 m/s 672 mmHg 40%
    02:00 +16°C° 0 mm 1 m/s 672 mmHg 43%
    03:00 +15°C° 0 mm 1 m/s 671 mmHg 45%
    04:00 +15°C° 0 mm 2 m/s 671 mmHg 46%
    05:00 +14°C° 0 mm 2 m/s 671 mmHg 48%
    06:00 +16°C° 0 mm 2 m/s 672 mmHg 45%
    07:00 +18°C° 0 mm 2 m/s 672 mmHg 42%
    08:00 +19°C° 0 mm 2 m/s 673 mmHg 40%
    09:00 +20°C° 0 mm 2 m/s 673 mmHg 36%
    10:00 +23°C° 0 mm 2 m/s 673 mmHg 32%
    11:00 +24°C° 0 mm 2 m/s 673 mmHg 29%
    12:00 +25°C° 0 mm 2 m/s 673 mmHg 27%
    13:00 +25°C° 0 mm 2 m/s 673 mmHg 26%
    14:00 +26°C° 0 mm 2 m/s 673 mmHg 25%
    15:00 +25°C° 0,1 mm 2 m/s 672 mmHg 26%
    16:00 +25°C° 0,1 mm 2 m/s 672 mmHg 27%
    17:00 +25°C° 0,1 mm 2 m/s 672 mmHg 28%
    18:00 +23°C° 0,2 mm 2 m/s 672 mmHg 34%
    19:00 +21°C° 0,2 mm 2 m/s 672 mmHg 40%
    20:00 +19°C° 0,2 mm 2 m/s 672 mmHg 47%
    21:00 +18°C° 0 mm 2 m/s 671 mmHg 49%
    22:00 +19°C° 0 mm 1 m/s 671 mmHg 51%
    23:00 +18°C° 0 mm 1 m/s 671 mmHg 53%

    27 Abril, Sexta-feira

    Tempo Temperatura Precipitação Vento Pressão Humidade
    00:00 +18°C° 0,3 mm 1 m/s 671 mmHg 55%
    01:00 +18°C° 0,3 mm 1 m/s 671 mmHg 57%
    02:00 +16°C° 0,3 mm 1 m/s 671 mmHg 59%
    03:00 +16°C° 0,1 mm 1 m/s 671 mmHg 60%
    04:00 +16°C° 0,1 mm 1 m/s 671 mmHg 62%
    05:00 +15°C° 0,1 mm 1 m/s 670 mmHg 63%
    06:00 +18°C° 0 mm 1 m/s 671 mmHg 57%
    07:00 +19°C° 0 mm 1 m/s 671 mmHg 50%
    08:00 +20°C° 0 mm 1 m/s 672 mmHg 44%
    09:00 +22°C° 0 mm 1 m/s 672 mmHg 40%
    10:00 +23°C° 0 mm 1 m/s 672 mmHg 36%
    11:00 +24°C° 0 mm 2 m/s 672 mmHg 32%
    12:00 +25°C° 0 mm 2 m/s 672 mmHg 30%
    13:00 +25°C° 0 mm 2 m/s 672 mmHg 28%
    14:00 +26°C° 0 mm 3 m/s 672 mmHg 25%
    15:00 +26°C° 0 mm 3 m/s 672 mmHg 25%
    16:00 +26°C° 0 mm 3 m/s 672 mmHg 25%
    17:00 +26°C° 0 mm 3 m/s 672 mmHg 25%
    18:00 +24°C° 0 mm 2 m/s 672 mmHg 29%
    19:00 +23°C° 0 mm 2 m/s 672 mmHg 32%
    20:00 +21°C° 0 mm 1 m/s 672 mmHg 36%
    21:00 +20°C° 0 mm 1 m/s 672 mmHg 37%
    22:00 +20°C° 0 mm 1 m/s 672 mmHg 38%
    23:00 +19°C° 0 mm 1 m/s 672 mmHg 39%

    28 Abril, Sábado

    Tempo Temperatura Precipitação Vento Pressão Humidade
    00:00 +19°C° 0 mm 1 m/s 671 mmHg 40%
    01:00 +17°C° 0 mm 2 m/s 671 mmHg 42%
    02:00 +17°C° 0 mm 2 m/s 671 mmHg 43%
    03:00 +16°C° 0 mm 2 m/s 671 mmHg 46%
    04:00 +16°C° 0 mm 2 m/s 671 mmHg 48%
    05:00 +15°C° 0 mm 2 m/s 671 mmHg 51%
    06:00 +17°C° 0 mm 2 m/s 672 mmHg 46%
    07:00 +19°C° 0 mm 2 m/s 673 mmHg 42%
    08:00 +21°C° 0 mm 2 m/s 673 mmHg 38%
    09:00 +23°C° 0 mm 2 m/s 673 mmHg 35%
    10:00 +24°C° 0 mm 2 m/s 674 mmHg 31%
    11:00 +25°C° 0 mm 2 m/s 674 mmHg 28%
    12:00 +26°C° 0 mm 3 m/s 674 mmHg 26%
    13:00 +27°C° 0 mm 3 m/s 673 mmHg 23%
    14:00 +27°C° 0 mm 3 m/s 673 mmHg 21%
    15:00 +27°C° 0 mm 3 m/s 673 mmHg 21%
    16:00 +27°C° 0 mm 3 m/s 673 mmHg 20%
    17:00 +27°C° 0 mm 3 m/s 673 mmHg 20%
    18:00 +25°C° 0 mm 2 m/s 672 mmHg 24%
    19:00 +23°C° 0 mm 2 m/s 672 mmHg 27%
    20:00 +22°C° 0 mm 1 m/s 672 mmHg 30%
    21:00 +21°C° 0 mm 1 m/s 672 mmHg 32%
    22:00 +20°C° 0 mm 1 m/s 672 mmHg 33%
    23:00 +19°C° 0 mm 1 m/s 672 mmHg 34%

    29 Abril, Domingo

    Tempo Temperatura Precipitação Vento Pressão Humidade
    00:00 +19°C° 0 mm 1 m/s 672 mmHg 36%
    01:00 +18°C° 0 mm 1 m/s 672 mmHg 39%
    02:00 +16°C° 0 mm 0 m/s 671 mmHg 41%
    03:00 +15°C° 0 mm 0 m/s 671 mmHg 42%
    04:00 +15°C° 0 mm 0 m/s 671 mmHg 43%
    05:00 +14°C° 0 mm 0 m/s 671 mmHg 44%
    06:00 +19°C° 0 mm 1 m/s 672 mmHg 39%
    07:00 +21°C° 0 mm 1 m/s 673 mmHg 33%
    08:00 +23°C° 0 mm 1 m/s 674 mmHg 28%
    09:00 +24°C° 0 mm 1 m/s 674 mmHg 26%
    10:00 +26°C° 0 mm 1 m/s 674 mmHg 24%
    11:00 +27°C° 0 mm 1 m/s 674 mmHg 22%
    12:00 +27°C° 0 mm 1 m/s 674 mmHg 21%
    13:00 +28°C° 0 mm 1 m/s 673 mmHg 20%
    14:00 +28°C° 0 mm 1 m/s 673 mmHg 19%
    15:00 +28°C° 0 mm 1 m/s 673 mmHg 21%
    16:00 +27°C° 0 mm 1 m/s 672 mmHg 22%
    17:00 +27°C° 0 mm 1 m/s 672 mmHg 23%
    18:00 +26°C° 0,1 mm 2 m/s 672 mmHg 28%
    19:00 +24°C° 0,1 mm 2 m/s 672 mmHg 33%
    20:00 +22°C° 0,1 mm 3 m/s 672 mmHg 39%
    21:00 +21°C° 0,2 mm 4 m/s 672 mmHg 45%
    22:00 +20°C° 0,2 mm 4 m/s 672 mmHg 51%
    23:00 +19°C° 0,2 mm 5 m/s 672 mmHg 58%
    Mostrar mais